Location: Hofen
(47.7821°N, 8.6770°E)
Time: 14:05:55
(UTC+00:00)

Daily predictions for brighter satellites

Satellite Brightness Start Highest point End
(mag) Time Altitude Azimuth Time Altitude Azimuth Time Altitude Azimuth
Cosmos 1980 Rocket 3.1 19:57:06 10° NNW 20:02:23 37° NE 20:07:38 10° ESE
SL-16 R/B 4.4 20:00:47 10° N 20:04:11 16° NE 20:07:35 10° ENE
Cosmos 2369 4.3 20:05:15 10° NNW 20:10:48 46° NE 20:16:18 10° SE
Cosmos 2344 4.4 20:07:18 10° NW 20:15:58 71° NE 20:28:01 10° SE
Resurs 01 Rocket 2.4 20:12:43 10° S 20:17:03 52° W 20:21:25 10° NNW
COSMOS 2406 3.6 20:15:04 10° S 20:20:28 44° ESE 20:25:54 10° NE
Cosmos 2184 Rocket 4.0 20:17:41 10° N 20:23:55 84° E 20:30:10 10° S
H-2A R/B 3.1 20:21:34 10° N 20:25:55 53° WNW 20:30:17 10° SSW
Cosmos 1833 Rocket 2.7 20:20:26 10° SSW 20:26:01 78° ESE 20:31:40 10° NNE
Cosmos 1867 4.0 20:24:05 10° NNW 20:29:30 58° NE 20:34:38 11° SE
Cosmos 1536 Rocket 3.9 20:27:28 10° SSW 20:31:48 70° W 20:36:10 10° N
Cosmos 1703 3.3 20:29:04 10° S 20:32:55 83° W 20:36:48 10° N
CARTOSAT-1 3.8 20:29:59 10° S 20:34:16 69° WSW 20:38:35 10° NNW
Cosmos 1825 4.4 20:34:09 10° E 20:34:56 11° E 20:35:44 10° ENE
Cosmos 1606 Rocket 3.7 20:31:37 10° N 20:35:55 60° ENE 20:39:49 12° SSE
USA 245 3.0 20:32:14 10° SSE 20:36:08 81° WSW 20:39:17 10° NNW
Ariane Rocket 3.8 20:33:25 10° S 20:38:21 51° W 20:43:21 10° NNW
Cosmos 2322 Rocket 4.2 20:34:36 10° N 20:38:36 19° NE 20:42:35 10° E
CZ-4B R/B 3.0 20:42:58 10° N 20:45:35 31° WNW 20:48:10 10° SW
GP-B 4.5 20:42:44 10° NNE 20:46:20 24° E 20:49:01 14° SE
USA 234 4.5 20:40:40 10° ENE 20:46:44 42° N 20:52:48 10° WNW
ARIANE 5 R/B 3.2 20:44:14 14° SE 20:47:44 43° ENE 20:51:55 10° N
Terra 2.0 20:44:04 14° SSE 20:48:07 61° ENE 20:52:50 10° N
SPOT 3 Rocket 4.0 20:44:47 10° S 20:49:56 62° WSW 20:55:08 10° NNW
SPOT 5 2.6 20:46:56 13° SSE 20:50:53 89° W 20:55:14 10° NNW
Cosmos 2278 4.2 20:47:11 10° NNW 20:52:47 51° ENE 20:57:25 15° SE
RESURS DK-1 4.2 20:49:23 10° NW 20:52:48 25° WSW 20:56:10 10° SSW
USA 276 2.4 20:50:53 10° WNW 20:53:54 62° N 20:56:54 10° E
Cosmos 2341 Rocket 4.4 20:48:09 10° N 20:54:20 52° ENE 20:59:17 16° SSE
FALCON 9 DEB 3.3 20:52:02 10° WNW 20:55:17 63° NNE 20:58:00 14° ESE
Cosmos 1726 Rocket 3.5 20:53:30 10° N 20:57:50 78° E 21:01:15 16° SSE
Meteor 1-11 4.4 20:58:42 13° S 21:03:31 54° E 21:08:56 10° NNE
Cosmos 2082 Rocket 2.2 20:58:33 10° SSW 21:04:12 67° ESE 21:09:52 10° NNE
Helios 1A Rocket 3.2 21:04:55 15° S 21:08:16 63° WSW 21:12:21 10° NNW
ASTEX 1 4.1 21:03:52 10° NNE 21:08:34 39° E 21:11:39 19° SSE
Spot 2 Rocket 3.8 21:04:02 12° S 21:08:40 63° WSW 21:13:46 10° NNW
Cosmos 1328 3.9 21:05:13 10° SSW 21:09:12 76° W 21:13:13 10° N
Cosmos 2084 Rocket 4.2 21:07:43 10° NW 21:11:21 37° WSW 21:13:53 18° S
Cosmos 2360 Rocket 4.1 21:08:57 10° N 21:13:17 22° NE 21:17:35 10° E
Nadezhda 1 Rocket 4.2 21:08:32 10° SSW 21:14:35 69° W 21:20:40 10° N
Cosmos 1932 4.5 21:11:53 10° SSW 21:17:58 61° ESE 21:24:13 10° NE
Cosmos 2181 Rocket 4.3 21:17:08 18° SSE 21:21:33 52° E 21:27:35 10° NNE
X-37B 2.7 21:24:35 10° WSW 21:25:27 12° SW 21:25:27 12° SW
ERS-1 Rocket 3.6 21:22:06 14° S 21:26:18 50° W 21:31:13 10° NNW
Cosmos 1892 2.6 21:26:26 23° S 21:28:42 76° E 21:32:29 10° NNE
Cosmos 1302 Rocket 4.4 21:30:03 10° SSW 21:35:12 65° WNW 21:40:23 10° NNE
Cosmos 1892 Rocket 4.2 21:38:01 12° SSW 21:42:00 54° WNW 21:46:18 10° N
Cosmos 968 Rocket 4.3 21:38:07 10° NW 21:43:03 43° WSW 21:46:30 18° SSW
Cosmos 1503 Rocket 4.3 21:39:15 10° NNW 21:44:29 57° ENE 21:47:32 24° SE
Cosmos 1697 Rocket 4.5 21:41:10 10° NW 21:45:24 22° WSW 21:49:37 10° SSW
Cosmos 1980 Rocket 3.0 21:41:08 10° NW 21:46:28 42° WSW 21:50:07 19° S
ALOS 2 4.3 21:44:13 15° ESE 21:46:36 23° ENE 21:50:05 10° NNE
Cosmos 2219 Rocket 4.3 21:44:57 10° N 21:48:59 19° NE 21:53:00 10° E
SL-16 R/B 2.4 21:43:50 10° NNW 21:49:29 63° ENE 21:52:57 24° SE
Cosmos 2058 Rocket 3.7 21:46:19 10° NNW 21:50:38 51° W 21:53:20 21° SSW
Cosmos 1408 3.4 21:48:45 17° SW 21:51:03 44° WNW 21:54:23 10° N
Cosmos 1626 Rocket 3.5 21:50:06 29° S 21:52:10 68° E 21:56:31 10° NNE
SL-8 Rocket 4.1 21:47:38 10° NNW 21:53:51 73° W 21:58:01 22° S
USA 267 3.6 21:48:01 10° ENE 21:54:11 43° SE 21:59:31 14° SSW
ATLAS 5 CENTAUR R/B 1.2 21:50:51 11° SW 21:54:24 87° NW 21:58:37 10° NE
SJ 16-02 1.9 21:57:14 10° NNW 22:01:34 48° ENE 22:03:35 28° SE
In-Cosmos 22 Rocket 4.2 21:59:05 18° SSW 22:03:11 76° WNW 22:08:37 10° N
SL-4 R/B 2.9 22:04:44 25° E 22:04:44 25° E 22:06:43 10° ENE
Cosmos 1825 2.4 22:08:00 29° SSW 22:09:42 63° W 22:13:27 10° N
Cosmos 2366 rocket 4.3 22:07:58 10° NNW 22:14:12 62° W 22:18:15 23° SSW
Cosmos 1869 3.9 22:13:08 10° NNW 22:16:55 49° W 22:18:25 31° SSW
Cosmos 2218 Rocket 4.5 22:14:24 10° NNW 22:20:39 56° W 22:24:43 22° SSW
Cosmos 2322 Rocket 2.2 22:17:50 10° NNW 22:23:34 81° ENE 22:26:28 30° SSE
GP-B 4.3 22:19:39 10° NNW 22:23:45 37° W 22:26:27 19° SW
ARIANE 5 R/B 4.5 22:21:46 14° SW 22:24:22 22° W 22:27:48 10° NW
Terra 4.0 22:23:05 10° SW 22:26:17 18° W 22:29:31 10° NW
USA 234 3.5 22:22:43 10° ESE 22:29:12 69° NNE 22:35:44 10° NW
USA 276 3.2 22:26:43 10° W 22:28:42 31° WSW 22:28:42 31° WSW
Cosmos 1934 Rocket 4.5 22:25:38 10° N 22:31:33 49° ENE 22:34:46 26° SE
Meteor 2-20 Rocket 4.5 22:33:21 31° SSE 22:36:20 67° E 22:42:23 10° NNE
BREEZE-M DEB (TANK) 3.8 22:33:48 10° WNW 22:37:08 89° NNE 22:50:31 10° ESE
Cosmos 1633 3.0 22:39:00 38° SW 22:39:55 52° WNW 22:43:20 10° N
Cosmos 1758 Rocket 3.7 22:42:24 36° SSW 22:44:06 69° W 22:48:31 10° N
Cosmos 2333 Rocket 2.9 22:38:50 10° NNW 22:44:28 51° NE 22:48:06 22° ESE
Cosmos 1238 4.1 22:44:13 71° SSE 22:44:31 83° E 22:48:08 10° N
Cosmos 2082 Rocket 4.2 22:44:03 10° WSW 22:48:47 26° NW 22:53:32 10° N
COSMOS 2487 4.3 22:52:54 16° E 22:52:54 16° E 22:54:18 10° NE
Cosmos 1606 2.9 22:49:43 10° NNW 22:53:33 63° W 22:54:21 49° SSW
Cosmos-2242 3.5 22:49:48 10° NNW 22:53:54 48° W 22:55:10 36° SW
Cosmos 1812 Rocket 4.5 22:50:27 10° NNW 22:54:36 39° W 22:56:09 29° SW
ADEOS Rocket 3.5 22:53:13 29° SSE 22:57:26 85° WSW 23:05:17 10° NNW
Cosmos 2360 Rocket 2.1 22:52:19 10° NNW 22:58:02 85° WSW 23:00:32 35° SSE
ISS -1.7 23:00:49 18° E 23:00:49 18° E 23:01:56 10° ENE
Cosmos 1340 Rocket 2.8 22:58:42 53° SSE 22:59:24 67° E 23:03:22 10° NNE
Gbstr 26 Del rocket 3.0 22:59:00 32° SW 23:00:53 70° SSE 23:05:56 10° ENE
Cosmos 375 4.4 23:05:37 45° SSW 23:06:50 76° SE 23:11:50 10° NE
Cosmos 2333 4.3 23:01:50 10° NNW 23:07:39 75° ENE 23:10:38 30° SE
BREEZE-M DEB (TANK) 3.3 23:12:24 39° ESE 23:12:24 39° ESE 23:16:24 10° ENE
SL-27 R/B 3.2 23:13:18 36° E 23:13:18 36° E 23:16:02 10° NE
Meteor 2-11 Rocket 4.4 23:08:26 10° N 23:14:35 86° E 23:17:23 35° S
NOSS 3-2 (A) 4.3 23:13:40 26° SE 23:14:47 28° ESE 23:19:52 10° ENE
Cosmos 44 3.0 23:14:09 43° SSW 23:15:35 78° SE 23:20:03 10° NE
Cosmos 972 Rocket 4.1 23:11:06 10° NNW 23:16:21 80° WSW 23:18:41 37° S
Cosmos 1833 4.1 23:14:26 36° SSW 23:16:50 78° ESE 23:22:27 10° NNE
Cosmos 1782 4.0 23:17:27 10° N 23:21:06 34° ENE 23:22:20 27° ESE
ERS-2 1.9 23:18:58 10° NNE 23:22:34 77° ESE 23:22:56 67° SSE
ALOS 2 3.3 23:21:37 35° SW 23:22:42 42° W 23:26:54 10° NNW
Cosmos 2237 Rocket 4.2 23:19:29 10° N 23:24:08 25° NE 23:28:43 10° E
CENTAUR R/B 3.3 23:22:31 27° SE 23:24:09 32° ESE 23:30:01 10° NE
Cosmos 1605 Rocket 4.1 23:18:51 10° N 23:25:18 78° E 23:28:27 32° SSE
COSMOS 2428 3.2 23:25:15 10° NNW 23:30:55 58° ENE 23:34:37 22° SE
H-2A R/B 4.4 23:27:10 10° N 23:31:09 42° WNW 23:32:48 28° WSW
Cosmos 2297 Rocket 4.2 23:29:19 12° ESE 23:31:18 14° E 23:34:03 10° ENE
Cosmos 2058 3.9 23:29:58 30° WSW 23:31:23 40° WNW 23:35:21 10° N
Cosmos 2151 3.9 23:31:03 33° SE 23:32:06 38° E 23:36:06 10° NNE
SL-16 R/B 3.6 23:28:46 10° NW 23:33:06 23° WSW 23:34:48 20° SW
Cosmos 2219 Rocket 2.2 23:28:07 10° NNW 23:33:50 83° ENE 23:36:40 31° SSE
Cosmos 1953 Rocket 3.9 23:33:03 38° SW 23:34:29 57° WNW 23:38:51 10° N
USA 267 3.4 23:30:57 10° NE 23:37:28 73° NNW 23:43:59 10° WSW
ATLAS 5 CENTAUR R/B 4.1 23:36:44 10° WNW 23:39:39 19° NNW 23:42:53 10° NNE
SJ 16-02 3.1 23:36:35 10° NW 23:39:45 19° W 23:40:31 19° WSW
SL-4 R/B 2.1 23:40:05 17° W 23:42:42 61° NNW 23:46:25 10° ENE
Cosmos 2322 3.6 23:37:17 10° NNW 23:42:59 89° NE 23:45:45 32° SSE
Cosmos 1898 Rocket 3.8 23:39:09 10° NNW 23:44:19 63° ENE 23:47:02 27° SE
Cosmos 1937 Rocket 4.1 23:44:21 10° NNW 23:49:29 52° ENE 23:52:46 21° SE
Cosmos 2221 3.0 23:46:59 10° NNW 23:51:12 49° W 23:52:14 40° SW
COSMOS 2455 4.0 23:45:54 10° NNW 23:51:38 42° NE 23:57:18 10° ESE
PSLV R/B 3.8 23:49:11 10° N 23:53:56 73° WNW 23:55:36 39° SSW
